[[{"header":{"parameterUnit":"m.s-1","parameterCategory":1,"la1":30.2991,"la2":30.254,"lo1":-89.0895,"lo2":-89.0444,"dy":0.0017,"dx":0.0017,"nx":28,"ny":28,"refTime":"2025-06-17T03:00:00:Z","depth":0,"parameterNumber":2,"parameterNumberName":"U-component_of_WINDS"},"data":[0,0,0,0,0,0,0,0,0,0,0,0,0,0,0,0,0,0,0,0,0,0,0,0,0,0,0,0,0,0,0,0,0,0,0,0,0,0,0,0,0,0,0,0,0,0,0,0,0,0,0,0,0,0,0,0,0,0,0.079,0.079,0,0.0809,0.0809,0.0809,0.08,0.0799,0.0799,0.0798,0.0818,0.0819,0.082,0,0,0,0,0,0,0,0,0,0,0,0,0,0.0746,0.0747,0.079,0.079,0.079,0.0808,0.0809,0.0809,0.08,0.0799,0.0799,0.0798,0.0818,0.0819,0.082,0,0,0,0,0,0,0,0,0,0,0,0,0,0.0765,0.0747,0.079,0.0788,0.0788,0.0808,0.0809,0.0809,0.08,0.0799,0.0798,0.0798,0.0818,0.0819,0.0821,0.0845,0,0,0.0825,0.0826,0,0,0,0,0,0,0,0,0.0764,0.0766,0.0788,0.0788,0.0788,0.0801,0.0801,0.0821,0.08,0.0795,0.0798,0.0797,0.0813,0.0815,0.082,0.0846,0.0846,0.0825,0.0826,0.0827,0.0827,0,0,0,0,0,0,0,0.0762,0.0765,0.0797,0.0788,0.0788,0.0786,0.0788,0.0804,0.0808,0.0796,0.0795,0.0797,0.0813,0.0819,0.0821,0.0847,0.0825,0.0827,0.0828,0.0828,0.089,0.0891,0,0,0,0,0,0,0.0761,0.0764,0.0797,0.0798,0.0774,0.0787,0.0789,0.0798,0.0808,0.0809,0.0798,0.0797,0.0817,0.0819,0.0821,0.0848,0.0827,0.0828,0.0829,0.0889,0.089,0.0891,0,0,0,0,0,0,0.076,0.0764,0.0796,0.0781,0.0785,0.0789,0.0798,0.0798,0.0804,0.081,0.081,0.0803,0.0816,0.0819,0.0838,0.0849,0.0829,0.083,0.0888,0.089,0.0891,0.0904,0,0,0,0,0,0,0.0759,0.0764,0.0773,0.0781,0.0786,0.0813,0.0799,0.0799,0.0806,0.0805,0.0815,0.0816,0.0816,0.0836,0.084,0.0851,0.0831,0.0888,0.0889,0.089,0.0902,0.0905,0.0907,0,0,0,0,0,0.0757,0.0777,0.0774,0.0778,0.0797,0.0813,0.0816,0.0816,0.0807,0.0816,0.082,0.0815,0.0847,0.0838,0.0842,0.0854,0.0887,0.0889,0.089,0.0901,0.0904,0.0907,0,0,0,0,0,0,0.0771,0.0778,0.0775,0.0797,0.0805,0.0812,0.0823,0.0819,0.083,0.0828,0.0828,0.083,0.0849,0.0854,0.0843,0.0876,0.0866,0.0868,0.0873,0.0876,0.0878,0.0877,0.0833,0,0,0,0,0,0.0776,0.0788,0.0794,0.0813,0.0817,0.082,0.0827,0.0825,0.0833,0.0837,0.0842,0.0849,0.0861,0.0869,0.088,0.0903,0.0904,0.0913,0.0915,0.0917,0.0919,0.093,0.0933,0.0897,0.0897,0.0897,0,0,0.0788,0.0793,0.0801,0.0816,0.0822,0.0834,0.0822,0.0837,0.0845,0.0839,0.0856,0.086,0.0869,0.0889,0.0899,0.0894,0.093,0.092,0.0921,0.0922,0.0932,0.0935,0.0938,0.0898,0.0898,0.0897,0,0,0.0815,0.0821,0.0837,0.0842,0.085,0.0851,0.0855,0.0862,0.0864,0.0882,0.0877,0.0887,0.0908,0.0914,0.0919,0.0947,0.0942,0.095,0.0964,0.0974,0.0977,0.0979,0.0987,0.0991,0.0952,0.0953,0.0953,0,0.0828,0.0847,0.0845,0.0859,0.0865,0.0859,0.0874,0.088,0.0891,0.0896,0.089,0.0914,0.092,0.094,0.0946,0.0952,0.0955,0.0949,0.0976,0.0979,0.0981,0.0989,0.0992,0.0953,0.0953,0.0953,0.0953,0,0.0862,0.0874,0.0886,0.0896,0.0904,0.0918,0.0919,0.0926,0.0924,0.0926,0.0943,0.0949,0.096,0.0966,0.0964,0.0986,0.0982,0.0976,0.0966,0.0985,0.0993,0.0996,0.0955,0.0954,0.0954,0.0954,0,0,0.0899,0.0906,0.0911,0.0914,0.0922,0.0932,0.0945,0.0956,0.0961,0.097,0.098,0.0997,0.0991,0.0997,0.0997,0.1006,0.1025,0.0999,0.0999,0.1002,0.1047,0.105,0.1053,0.1022,0.1022,0.1023,0.1045,0,0.0925,0.0948,0.0947,0.0968,0.0979,0.0973,0.0984,0.099,0.0992,0.1001,0.1003,0.1014,0.1006,0.1009,0.1018,0.102,0.1033,0.1019,0.1031,0.1032,0.1028,0.1058,0.1062,0.1082,0.1048,0.1049,0.1049,0,0.0959,0.0967,0.0989,0.0993,0.0998,0.1008,0.1017,0.1026,0.1032,0.1032,0.1038,0.1035,0.1048,0.1038,0.1055,0.1045,0.105,0.1052,0.1053,0.1053,0.1041,0.1058,0.1089,0.1092,0.1054,0.1054,0.1053,0,0.0981,0.0998,0.1012,0.1016,0.1022,0.1029,0.1032,0.1037,0.1043,0.105,0.1054,0.1063,0.1068,0.1075,0.1074,0.1067,0.1091,0.1081,0.1091,0.1091,0.1096,0.1096,0.1128,0.1101,0.1101,0.1101,0.1101,0,0.101,0.1024,0.1022,0.1031,0.1046,0.1044,0.1059,0.1061,0.1065,0.1074,0.107,0.1078,0.1077,0.1086,0.1085,0.1099,0.1102,0.1102,0.1101,0.1101,0.1101,0.1104,0.1102,0.1102,0.1102,0.1102,0.1101,0,0.1038,0.1037,0.1053,0.1056,0.1058,0.1068,0.1071,0.1079,0.108,0.1091,0.1094,0.1095,0.1105,0.1105,0.1116,0.1116,0.1132,0.1131,0.113,0.1129,0.1139,0.1137,0.1173,0.1177,0.1149,0.1149,0.1149,0,0.1056,0.1066,0.107,0.1075,0.1078,0.1087,0.1092,0.109,0.1096,0.1102,0.111,0.1119,0.1126,0.1141,0.1143,0.1151,0.1149,0.1161,0.115,0.115,0.1148,0.1147,0.1147,0.1163,0.1163,0.1164,0.1164,0,0.1087,0.1086,0.1093,0.11,0.1106,0.1112,0.1117,0.1122,0.112,0.1127,0.1136,0.1141,0.1152,0.1161,0.1168,0.1171,0.1167,0.1167,0.117,0.117,0.1168,0.1167,0.1134,0.1166,0.1166,0.1166,0.1166,0.1166,0.1109,0.1117,0.1121,0.1129,0.1132,0.1137,0.1144,0.1145,0.1152,0.116,0.1159,0.1169,0.1173,0.1182,0.1186,0.1193,0.1189,0.1193,0.1194,0.1195,0.1195,0.1167,0.1195,0.1195,0.1195,0.1195,0.1195,0,0.1139,0.1141,0.1148,0.1155,0.1161,0.1156,0.1161,0.1166,0.1174,0.1179,0.1185,0.1195,0.1203,0.1205,0.1212,0.1218,0.1216,0.122,0.1219,0.1219,0.1199,0.1196,0.1221,0.1221,0.1221,0.1221,0.1221,0.1221,0.1155,0.1168,0.1167,0.118,0.1182,0.1191,0.1194,0.1198,0.1201,0.1211,0.1218,0.1218,0.1221,0.1229,0.1235,0.1236,0.1238,0.1242,0.1242,0.1223,0.1221,0.1218,0.1215,0.1243,0.1243,0.1261,0.1261,0.1261]},{"header":{"parameterUnit":"m.s-1","parameterCategory":1,"la1":30.2991,"la2":30.254,"lo1":-89.0895,"lo2":-89.0444,"dy":0.0017,"dx":0.0017,"nx":28,"ny":28,"refTime":"2025-06-17T03:00:00:Z","depth":0,"parameterNumber":3,"parameterNumberName":"V-component_of_WINDS"},"data":[0,0,0,0,0,0,0,0,0,0,0,0,0,0,0,0,0,0,0,0,0,0,0,0,0,0,0,0,0,0,0,0,0,0,0,0,0,0,0,0,0,0,0,0,0,0,0,0,0,0,0,0,0,0,0,0,0,0,4.8945,4.8946,0,4.9032,4.9033,4.9034,4.8978,4.8975,4.8973,4.897,4.9054,4.9059,4.9064,0,0,0,0,0,0,0,0,0,0,0,0,0,4.8724,4.8729,4.8945,4.8946,4.8947,4.9031,4.9033,4.9034,4.8978,4.8975,4.8972,4.8969,4.9053,4.9058,4.9064,0,0,0,0,0,0,0,0,0,0,0,0,0,4.8816,4.873,4.8945,4.8929,4.8929,4.9031,4.9033,4.9034,4.8979,4.8975,4.8971,4.8967,4.9051,4.9058,4.9065,4.9185,0,0,4.9086,4.9089,0,0,0,0,0,0,0,0,4.8811,4.8825,4.8931,4.8931,4.893,4.899,4.8986,4.9085,4.898,4.896,4.897,4.8966,4.9036,4.9044,4.9068,4.9189,4.9193,4.9087,4.9091,4.9094,4.9096,0,0,0,0,0,0,0,4.8805,4.882,4.8979,4.8932,4.8932,4.8916,4.8925,4.9004,4.9018,4.8961,4.8957,4.8969,4.9035,4.9062,4.907,4.9194,4.9086,4.9093,4.9097,4.91,4.9414,4.9418,0,0,0,0,0,0,4.8801,4.8816,4.8976,4.8982,4.886,4.8923,4.8933,4.8975,4.9017,4.902,4.8972,4.8966,4.9052,4.9062,4.9073,4.9215,4.9094,4.91,4.9104,4.941,4.9415,4.942,0,0,0,0,0,0,4.8796,4.8815,4.8973,4.8898,4.8916,4.8931,4.8978,4.8978,4.9005,4.9025,4.9027,4.8997,4.9049,4.9063,4.9157,4.9217,4.9103,4.911,4.9405,4.9412,4.9418,4.9501,0,0,0,0,0,0,4.879,4.8814,4.8862,4.8899,4.8921,4.9058,4.8982,4.8983,4.9018,4.9011,4.905,4.9052,4.9047,4.9147,4.9164,4.9224,4.9115,4.94,4.9408,4.9416,4.9493,4.9509,4.9523,0,0,0,0,0,4.8782,4.8882,4.8865,4.8884,4.8981,4.9062,4.9074,4.9067,4.9023,4.907,4.9082,4.9051,4.9208,4.9157,4.9176,4.9239,4.9396,4.9406,4.9415,4.9486,4.9506,4.9523,0,0,0,0,0,0,4.885,4.8886,4.8868,4.8983,4.902,4.9052,4.9111,4.9089,4.9138,4.9129,4.9117,4.9126,4.9225,4.9241,4.9185,4.9356,4.9295,4.9308,4.9342,4.9361,4.9376,4.937,4.9121,0,0,0,0,0,4.8878,4.8943,4.897,4.9069,4.9088,4.9097,4.9132,4.9123,4.916,4.9175,4.9195,4.9231,4.9287,4.9325,4.9379,4.9495,4.9501,4.9547,4.9562,4.9575,4.9586,4.9646,4.9666,4.9451,4.9451,4.945,0,0,4.8938,4.8965,4.9007,4.9083,4.9111,4.9175,4.911,4.9182,4.9229,4.9186,4.9276,4.9291,4.933,4.9435,4.9482,4.9452,4.9647,4.9587,4.9596,4.9601,4.9657,4.9678,4.9696,4.9457,4.9456,4.9455,0,0,4.9078,4.9107,4.919,4.9219,4.9262,4.9267,4.9287,4.9323,4.9331,4.9422,4.939,4.9445,4.9544,4.9572,4.96,4.9748,4.972,4.9766,4.9845,4.9903,4.992,4.9935,4.9986,5.0004,4.9777,4.9778,4.9778,0,4.9146,4.9244,4.9236,4.931,4.9343,4.9308,4.9391,4.9419,4.9476,4.9499,4.9465,4.9587,4.961,4.972,4.9756,4.978,4.9801,4.9761,4.9918,4.9933,4.9947,4.9995,5.0015,4.9783,4.9782,4.9782,4.9781,0,4.9323,4.9392,4.9454,4.9511,4.9551,4.963,4.9631,4.9673,4.966,4.9667,4.9758,4.9786,4.9843,4.9868,4.9857,4.9976,4.9955,4.992,4.9858,4.9973,5.0018,5.0037,4.979,4.9788,4.9787,4.9786,0,0,4.951,4.9561,4.9584,4.9608,4.9652,4.9703,4.9778,4.9836,4.987,4.991,4.9971,5.0055,5.0022,5.0053,5.0044,5.0095,5.0208,5.0053,5.0054,5.0079,5.0338,5.0364,5.0386,5.019,5.0194,5.0197,5.0334,0,4.9652,4.9785,4.9779,4.9902,4.9963,4.9929,4.9994,5.0026,5.0035,5.0086,5.0094,5.0153,5.0106,5.0124,5.0174,5.0184,5.026,5.0174,5.0245,5.0247,5.0235,5.041,5.0437,5.0566,5.0352,5.0355,5.0357,0,4.9835,4.9882,5.0012,5.0044,5.007,5.0129,5.0179,5.0229,5.0264,5.0266,5.03,5.0282,5.0355,5.0291,5.0391,5.0332,5.0361,5.037,5.0374,5.038,5.0309,5.0418,5.0607,5.0626,5.0385,5.0383,5.0381,0,4.9956,5.0052,5.0141,5.0163,5.0204,5.0245,5.0264,5.0295,5.0329,5.0372,5.0393,5.0444,5.0472,5.0511,5.0506,5.046,5.0606,5.0542,5.0608,5.0608,5.064,5.0637,5.0835,5.066,5.066,5.0659,5.0659,0,5.0114,5.0194,5.0195,5.0251,5.0338,5.0329,5.0416,5.0429,5.0457,5.0512,5.0485,5.0537,5.0528,5.0579,5.0575,5.0656,5.0669,5.0671,5.0669,5.0673,5.0673,5.0691,5.0681,5.0664,5.0663,5.0662,5.0661,0,5.0264,5.0268,5.0363,5.0393,5.0402,5.0466,5.049,5.0541,5.0546,5.0616,5.0631,5.064,5.0698,5.0697,5.0764,5.0761,5.086,5.0848,5.0849,5.0846,5.0911,5.0904,5.1126,5.1153,5.0962,5.0964,5.0965,0,5.0365,5.0425,5.0462,5.0497,5.0518,5.0576,5.061,5.0603,5.0639,5.0682,5.0727,5.0783,5.0827,5.0922,5.0932,5.0982,5.097,5.1044,5.0978,5.0979,5.0969,5.0965,5.097,5.1057,5.1059,5.1061,5.1062,0,5.0541,5.054,5.0591,5.0643,5.0685,5.0725,5.0761,5.0791,5.0787,5.0829,5.0889,5.0924,5.0991,5.1046,5.1094,5.111,5.1085,5.1083,5.1101,5.1105,5.1102,5.1103,5.0883,5.1078,5.1077,5.1076,5.1075,5.1074,5.0668,5.072,5.0753,5.081,5.0837,5.0871,5.092,5.0931,5.0981,5.1037,5.1028,5.1095,5.1125,5.1186,5.1207,5.1257,5.123,5.1256,5.1263,5.1269,5.1275,5.1095,5.1266,5.1265,5.1265,5.1264,5.1264,0,5.0842,5.0862,5.0914,5.0967,5.1011,5.0985,5.1023,5.1061,5.112,5.1151,5.1196,5.1263,5.1316,5.133,5.138,5.1417,5.1407,5.143,5.1427,5.1431,5.1297,5.1276,5.1438,5.1438,5.1438,5.1438,5.1438,5.1438,5.0938,5.1023,5.1025,5.1122,5.114,5.1206,5.123,5.126,5.1285,5.1362,5.1406,5.1415,5.1438,5.149,5.1536,5.1538,5.1557,5.1586,5.1583,5.1458,5.144,5.1424,5.1404,5.159,5.159,5.1713,5.1714,5.1715]}]]